Location: Allaines
(49.9632°N, 2.9458°E)
Time: 23:02:04
(UTC+00:00)

Cosmos 1833 Rocket - Pass Details

Date: 09 April 2020
Orbit: 834 x 838 km, 71.0° (Epoch: 03 June)

Event Time Altitude Azimuth Distance (km) Brightness Sun altitude
Exits shadow 20:39:14 26° 92° (E) 1,580 3.7 -18.9°
Drops below altitude 10° 20:43:14 10° 48° (NE) 2,460 5.0 -19.3°
Sets 20:46:00 0° 37° (NE) 3,398 5.9 -19.7°
